Location: Chuathbaluk
(61.5726°N, 159.2454°W)
Time: 02:51:24
(UTC+00:00)

TIGRISAT - Pass Details

Date: 26 January 2021
Orbit: 605 x 688 km, 97.7° (Epoch: 05 March)

Event Time Altitude Azimuth Distance (km) Brightness Sun altitude
Rises 16:51:51 0° 157° (SSE) 2,884 ? -16.0°
Reaches altitude 10° 16:54:01 10° 156° (SSE) 1,992 ? -15.7°
Maximum altitude 16:58:21 80° 70° (ENE) 650 ? -15.2°
Drops below altitude 10° 17:02:49 10° 344° (NNW) 2,054 ? -14.7°
Enters shadow 17:04:50 - 344° (NNW) 2,884 ? -14.5°
